Regional Weather Roundup
Issued by NWS Wakefield, VA

Home | Current Version | Previous Version | Graphics & Text | Print | Product List | Glossary On
Versions: 1 2 3 4 5 6 7 8 9 10 11 12 13 14 15 16 17 18 19 20 21 22 23 24 25 26 27 28 29 30 31 32 33 34 35 36 37 38 39 40 41 42 43 44 45 46 47 48 49 50
000
ASUS41 KAKQ 280110
RWRAKQ

REGIONAL WEATHER ROUNDUP
NATIONAL WEATHER SERVICE WAKEFIELD VA
900 PM EDT SUN JUL 27 2014

Note: "fair" indicates few or no clouds below 12,000 feet with no
significant weather and/or obstructions to visibility. * = Denotes
station may not report precipitation (e.g., rain,snow,etc.),
thunder or fog.

VAZ042-051-052>054-056-280200-
NORTHERN VIRGINIA

CITY           SKY/WX    TMP DP  RH WIND       PRES   REMARKS
WASH NATIONAL  MOCLDY    81  71  71 S9        29.69F
DULLES         PTCLDY    77  70  79 S9        29.68F
FORT BELVOIR   CLEAR     77  72  85 CALM      29.70F
QUANTICO       PTCLDY    80  72  76 SW12      29.70F
FREDERICKSBRG* PTCLDY    80  73  77 S8        29.71F
STAFFORD*      PTCLDY    79  79  98 SW6       29.74F
WARRENTON      PTCLDY    79  75  89 S5        29.69F
CULPEPER*      PTCLDY   N/A N/A N/A SW6       29.70F
MANASSAS*      MOCLDY    79  72  78 S3        29.69F
LEESBURG*      MOCLDY    79  73  83 S3        29.69F
WINCHESTER     LGT RAIN  77  70  78 S7        29.68F
$$

VAZ048-049-060>072-079>083-280200-
CENTRAL AND SOUTH CENTRAL VIRGINIA...AND NORTH CENTRAL NORTH CAROLINA

CITY           SKY/WX    TMP DP  RH WIND       PRES   REMARKS
RICHMOND       PTCLDY    80  70  71 SW8       29.75S
CHESTERFIELD*  PTCLDY   N/A N/A N/A S3        29.77S
HANOVER        CLEAR     80  70  71 S9        29.76R
TAPPAHANNOCK*  CLEAR     77  68  73 S5        29.74S
CHARLOTTSVILLE PTCLDY    79  70  74 S10       29.72F
ORANGE*        CLOUDY    77  70  78 S7        29.73F
LOUISA*        CLOUDY    79  72  78 SW3       29.74S
FARMVILLE*     MOCLDY    77  72  83 CALM      29.74F
SOUTH HILL*    CLOUDY    79  77  94 S5        29.83F
ROANOKE RAPIDS NOT AVBL
RALEIGH        CLOUDY    82  70  66 SW10      29.79F
$$

VAZ088>098-280200-
SOUTHEAST VIRGINIA

CITY           SKY/WX    TMP DP  RH WIND       PRES   REMARKS
NORFOLK        PTCLDY    79  71  76 S9        29.77F
VIRGINIA BEACH MOCLDY    79  72  79 S6        29.77F
NORFOLK NAVAL  MOCLDY    80  73  79 S7        29.78F
WEST POINT*    CLEAR     80  72  75 S3        29.76S
NEWPORT NEWS   PTCLDY    82  73  74 SW9       29.76F
LANGLEY AFB    PTCLDY    79  74  85 SW10      29.76F
FORT EUSTIS    PTCLDY    79  75  87 S6        29.75F
WILLIAMSBURG*  PTCLDY    81  73  78 S5        29.77S
FRANKLIN*      PTCLDY    77  73  88 S7        29.79S
WAKEFIELD      PTCLDY    78  73  84 S5        29.78S
$$

VAZ020-022-025-037-045-280200-
WESTERN AND SOUTHWEST VIRGINIA

CITY           SKY/WX    TMP DP  RH WIND       PRES   REMARKS
STAUNTON*      CLEAR     77  66  67 S7        29.75F
HOT SPRINGS VA CLOUDY    67  61  79 W17       29.92F
LYNCHBURG      PTCLDY    76  73  91 S5        29.78F
DANVILLE       CLOUDY    80  72  76 CALM      29.76F
MARTINSVILLE   CLOUDY    82  70  66 W5        29.80S
ROANOKE        PTCLDY    79  66  64 W5        29.80F
BLACKSBURG     MOCLDY    73  70  88 CALM        N/A
DUBLIN*        MOCLDY    76  68  74 W10G20    29.87R
MARION*        CLOUDY   N/A N/A N/A W9        29.94S
HILLSVILLE*      N/A     70  66  88 SW12G17   29.91R
RICHLANDS*     CLOUDY    74  66  75 SW8       29.92R
WISE*          MOCLDY    70  68  94 SW7       29.95R
ABINGDON*      CLOUDY    68  67  96 NW8       29.92R
$$

MDZ021>025-VAZ099-100-280200-
SOUTHERN MARYLAND AND THE DELMARVA PENINSULA

CITY           SKY/WX    TMP DP  RH WIND       PRES   REMARKS
PATUXENT RIVER CLEAR     78  71  79 S6        29.71F
BAY BRIDGE APT   N/A     79  72  78 S7        29.70S
LEONARDTOWN    CLEAR     77  70  78 S5        29.74S
DOVER          CLOUDY    78  73  85 S10       29.70R
GEORGETOWN     MOCLDY    76  71  85 S12       29.73S
EASTON         MOCLDY    81  73  78 S7        29.75S
CAMBRIDGE      CLEAR     79  72  78 S5        29.72S
SALISBURY      PTCLDY    78  72  81 S7        29.74R
OCEAN CITY     MOCLDY    78  71  79 SW6       29.74F
WALLOPS ISLAND MOCLDY    78  72  81 SW9       29.76R
ACCOMACK*        N/A     75  70  83 SW7       29.76S
$$

NCZ012>017-030>032-280200-
EASTERN NORTH CAROLINA

CITY           SKY/WX    TMP DP  RH WIND       PRES   REMARKS
ELIZABETH CITY PTCLDY    75  70  84 SW7       29.81S
AHOSKIE*       CLOUDY    75  72  89 S3        29.81S
EDENTON*       PTCLDY    79  72  81 S5        29.81F
CURRITUCK*     PTCLDY    78  68  69 SW5       29.81S
KILL DEVIL HLS PTCLDY    80  69  70 SW8G16    29.81R
MANTEO         NOT AVBL
CAPE HATTERAS  PTCLDY    81  78  91 SW8       29.84S
GOLDSBORO      MOCLDY    82  78  87 S6        29.81R
WASHINGTON     PTCLDY    77  74  90 CALM      29.83S
GREENVILLE     MOCLDY    77  73  88 CALM      29.85S
NEW BERN       PTCLDY    82  75  79 CALM      29.84S
WILMINGTON     CLEAR     84  76  76 SW13      29.85S
$$

VAZ048-280200-
ELSEWHERE

CITY           SKY/WX    TMP DP  RH WIND       PRES   REMARKS
HARRISBURG PA  TSTM      67  63  87 CALM      29.71R FOG
BALTIMORE      MOCLDY    79  70  74 S3        29.68F
ANNAPOLIS      MOCLDY    79  71  76 S7        29.68F
ANDREWS AFB    PTCLDY    77  72  84 S7        29.69F
WILMINGTON DE  CLOUDY    80  71  74 S10       29.69S
PHILADELPHIA   LGT RAIN  81  71  71 S10       29.68S
WILDWOOD NJ*   CLOUDY    79  68  69 SW9       29.73S
ATLANTIC CITY  CLOUDY    78  71  79 SW8       29.71S
HENDERSON NC   CLOUDY    78  71  79 S5        29.78F
GREENSBORO     CLOUDY    82  71  69 SW20G25   29.80F
ROCKY MOUNT    MOCLDY    77  74  90 S5        29.81S
FAYETTEVILLE   MOCLDY    86  72  62 SW10      29.83R
CHARLOTTE      CLOUDY    83  72  69 SW5       29.89R
$$

VAZ100-280200-
MARINE

STATION/POSITION TIME  TEMP    WIND        PRES    WAVE   SWELL
                       AIR SEA DIR/SP/G            HT/PER HT/PER
                 (UTC) (F)     (DEG/KT/KT) (MB)    (FT/S) (FT/S)
44066 TX TWR #4  0100   74 74  200/ 12/ 14 1006.7R   4/ 6   2/ 8
CAPE MAY NJ      0100   76 78  210/  6/  8 1006.0S
LEWES DE         0100   78 73  200/  4/  6 1006.2F
15NM E FENWICK I 0100   76 74              1007.1R   2/ 6
OCEAN-CITY-INLET 0100   78 72  240/  8/  9 1006.6F
WACHAPREAGUE VA  0100   79 80  210/  8/ 11 1007.8S
THOMAS POINT MD  0100   80 80  180/ 14/ 15 1005.6F
GOOSES REEF MD   0100   80     200/ 10/ 12 1006.5S
COVE POINT MD    0100   79     200/  8/ 10 1006.2S
SOLOMONS ISLAND  0100      80                N/A
BISHOPS HEAD MD  0100   80 80  210/ 14/ 15 1006.3F
PINEY POINT MD   0100          220/  8/  9   N/A
POTOMAC MD       0100   80     220/ 12/ 14 1006.2S
CAMBRIDGE MD     0100   79 80  190/  4/  7 1006.0S
LEWISETTA VA     0100   79 80  220/  5/  7 1006.4F
RAPPAHANNOCK LGT 0100          200/ 15/ 16 1008.1S
STINGRAY PT      0100   80     200/ 12/ 14 1008.2S
YORK RVR RNG VA  0100   80     210/ 13/ 15 1007.0F
YORKTOWN VA      0100   79 80  200/  7/  8 1007.3F
JAMESTOWN VA     0100   78     230/  6/ 10   N/A
DOMINION TERM VA 0100   80     210/  8/ 10 1008.2F
KIPTOPEKE VA     0100      82  230/ 10/ 12   N/A
CHES BAY BRIDGE  0100   80 80  200/ 11/ 14 1007.7F
CAPE HENRY VA    0100   80     220/  6/ 12 1007.3S
WILLOUBY STN VA  0100          220/  9/ 11 1007.3F
S CRANEY ISL VA  0100          180/  5/  9 1008.1F
CAPE HENRY BUOY  0100      77                N/A     2/11
1ST LANDING BUOY 0100   81     220/ 12/ 14 1008.1S
CAPE CHARLES BUO 0100      76                N/A     2/11
OFFSHORE WE BUOY 0100      78                N/A     2/ 6
64NM E OF VA BCH 0100   80 78  230/ 14/ 16 1008.5R   3/ 5   2/ 8
DUCK PIER NC     0100   80 64  240/ 15/ 21 1008.8S
44056 DUCK FRF   0100                        N/A     2/11
OREGON INLET NC  0100   81 82  220/ 15/ 17 1009.7S
HATTERAS NC      0100   82 83  220/  7/ 10 1010.7F
DIAMOND SHLS NC  0100          VRB 17/ 21  1010.0F   3/11   2/11
CAPE LOOKOUT NC  0000   82     220/ 12/ 15 1010.4F
$$


USA.gov is the U.S. government's official web portal to all federal, state and local government web resources and services.